Location: Abrevi
(42.0569°N, 44.3575°E)
Time: 01:32:56
(UTC+00:00)

Daily predictions for brighter satellites

Satellite Brightness Start Highest point End
(mag) Time Altitude Azimuth Time Altitude Azimuth Time Altitude Azimuth
SeaSat 1 3.8 00:00:02 10° NE 00:04:29 33° ESE 00:08:09 14° SSE
Cosmos 1892 Rocket 4.0 00:03:54 10° NNW 00:08:09 44° W 00:09:01 39° SW
Cosmos 1461 3.3 00:10:40 37° WSW 00:12:05 55° NW 00:16:33 10° NNE
Cosmos 2082 4.4 00:11:37 27° WSW 00:13:58 39° WNW 00:19:14 10° N
CZ-2D R/B 3.3 00:11:49 10° NNE 00:15:53 84° E 00:17:52 29° S
CZ-2C R/B 3.5 00:12:57 10° NNE 00:16:44 49° E 00:19:22 18° S
ATLAS CENTAUR R/B 4.1 00:16:52 10° SE 00:18:11 11° ESE 00:19:30 10° E
Cosmos 1340 Rocket 3.0 00:18:42 37° SW 00:19:56 52° WNW 00:23:51 10° N
Cosmos 2112 Rocket 4.2 00:17:23 10° NNW 00:22:25 49° WSW 00:26:24 16° S
Meteor 1-24 Rocket 4.4 00:20:17 10° NNW 00:25:00 31° W 00:26:48 25° WSW
NOSS 2-3 (E) 3.6 00:23:06 28° SSW 00:25:17 75° ESE 00:30:05 10° NE
ERS-2 3.3 00:22:18 10° SE 00:25:46 43° ENE 00:29:14 10° N
Cosmos 1953 2.3 00:23:38 22° S 00:26:08 84° E 00:30:11 10° N
SL-16 R/B 2.7 00:21:52 10° NW 00:27:04 37° WSW 00:30:51 17° SSW
SL-4 R/B 1.4 00:24:06 10° NW 00:27:31 89° NE 00:30:56 10° SE
SL-16 R/B 4.2 00:28:37 14° W 00:28:57 14° W 00:32:14 10° WNW
Cosmos 1937 Rocket 3.7 00:26:45 25° SW 00:29:43 58° WNW 00:34:59 10° NNE
USA 267 3.3 00:24:39 10° SE 00:31:11 88° NE 00:37:46 10° NW
Cosmos 1726 2.0 00:29:36 27° SSW 00:31:28 71° W 00:35:09 10° N
Cosmos 1908 4.4 00:28:47 10° SSE 00:32:28 43° E 00:36:12 10° NNE
NOSS 3-1 (C) 3.5 00:30:01 24° WSW 00:33:20 59° NW 00:39:34 10° NNE
Cosmos 1898 Rocket 4.2 00:31:24 23° WSW 00:34:04 39° WNW 00:38:58 10° N
ARIANE 5 R/B 2.9 00:29:27 10° N 00:34:28 49° WNW 00:37:43 21° SW
H-2A R/B 2.1 00:31:02 10° SSE 00:35:10 78° ENE 00:39:16 10° N
CZ-2D R/B 4.2 00:33:25 10° NNW 00:35:37 12° WNW 00:37:48 10° W
IDEFIX/ARIANE 42P 2.5 00:31:49 10° N 00:37:00 71° WNW 00:41:07 16° SSW
BREEZE-M TANK 3.3 00:36:23 10° WNW 00:39:55 82° SSW 00:51:08 10° ESE
Cosmos 1680 Rocket 4.3 00:35:36 10° NW 00:40:03 29° W 00:42:46 18° SW
Cosmos 1553 Rocket 4.3 00:37:38 10° S 00:43:37 67° E 00:49:39 10° NNE
ADEOS II 3.5 00:40:43 10° NNW 00:44:44 23° WNW 00:47:28 15° WSW
Cosmos 2263 Rocket 2.1 00:42:10 16° SSW 00:46:41 82° WNW 00:52:17 10° NNE
NOSS 2-3 (D) 3.6 00:46:11 20° SW 00:49:03 72° NW 00:53:55 10° NNE
Cosmos 2297 Rocket 4.3 00:47:08 10° WNW 00:49:27 12° NW 00:51:46 10° NNW
CZ-4C R/B 2.7 00:48:09 10° S 00:51:18 63° WSW 00:54:34 10° NNW
Meteor 2-10 4.4 00:48:18 15° SSW 00:52:39 52° WNW 00:58:07 10° N
Cosmos 372 Rocket 4.0 00:48:15 14° SSW 00:52:47 78° WNW 00:58:02 10° NNE
COSMOS 2441 4.3 00:50:05 10° N 00:54:54 78° WNW 00:59:42 10° SSW
CZ-4B R/B 3.5 00:52:27 10° SE 00:55:23 30° ENE 00:58:17 10° N
Cosmos 1703 3.3 00:56:43 10° N 01:00:42 88° E 01:04:39 10° S
OAO 3 Rocket 4.4 01:00:01 14° SW 01:03:28 30° SSE 01:07:44 10° ESE
Cosmos 1125 Rocket 4.1 01:00:13 10° S 01:05:19 58° ESE 01:10:29 10° NNE
Cosmos 1602 Rocket 4.0 01:02:02 10° NNW 01:06:07 40° W 01:10:09 10° SSW
USA 229 DEB 4.2 01:01:07 13° WSW 01:06:39 46° NW 01:13:16 10° NNE
CZ-2C R/B 2.5 01:02:05 10° NNE 01:06:40 72° ESE 01:11:16 10° S
USA 229 4.2 01:01:13 13° WSW 01:06:44 47° NW 01:13:20 10° NNE
Cosmos 1603 3.7 01:01:05 10° NNW 01:06:47 67° WSW 01:12:24 10° S
Cosmos 1606 Rocket 3.8 01:02:57 10° S 01:07:24 76° E 01:11:53 10° NNE
Meteor 2-16 Rocket 4.5 01:02:42 10° NNW 01:08:48 65° W 01:14:52 10° S
DEBRIS 1.5 01:07:51 15° WSW 01:09:50 90° WSW 01:11:54 10° ENE
S3M 4.2 01:04:07 10° S 01:10:28 80° E 01:16:54 10° N
Cosmos 1844 Rocket 4.2 01:08:34 10° SSE 01:13:33 34° ESE 01:18:32 10° NE
Cosmos 1300 4.0 01:10:33 10° SSE 01:14:08 41° E 01:17:45 10° NNE
SL-08 R/B 4.5 01:11:18 10° NNW 01:17:27 70° W 01:23:39 10° S
NOSS 2-3 (C) 4.4 01:13:41 11° WSW 01:17:30 40° NW 01:22:12 10° NNE
NOSS 3-1 (A) 3.8 01:12:40 11° WSW 01:17:43 48° NW 01:23:51 10° NNE
ATLAS 3B CENTAUR R/B 3.9 01:14:29 10° WSW 01:21:12 21° SSW 01:25:12 10° SSE
Cosmos 2298 Rocket 4.2 01:17:12 10° SSW 01:22:26 59° WNW 01:27:42 10° NNE
ADEOS Rocket 4.2 01:15:07 10° SSE 01:22:31 65° ENE 01:30:13 10° N
SAR-Lupe-1 4.3 01:20:08 10° SSE 01:23:42 75° ENE 01:27:17 10° N
Cosmos 1484 Rocket 4.3 01:20:28 10° NNE 01:23:56 36° E 01:27:22 10° SSE
Cosmos 1726 Rocket 3.6 01:20:59 10° S 01:25:26 87° W 01:29:56 10° N
Cosmos 2084 4.0 01:22:52 10° SSW 01:27:11 61° ESE 01:31:34 10° NE
ALOS 3.5 01:26:15 10° NNE 01:30:44 45° E 01:35:12 10° S
Cosmos 1943 3.4 01:28:39 10° NW 01:34:00 47° WSW 01:39:20 10° S
